Flag for Russia Weather past 2 weeks in Orenburg, Russia

Now
54 °F

Passing clouds.


Feels Like: 54 °F
Forecast: 55 / 86 °F
Wind: 1 mph from Southeast

Location: Orenburg / Tsentralny

Current Time: Jul 31, 2014 at 4:04:02 AM

Latest Report: Jul 31, 2014 at 3:30 AM


Visibility: N/A

Pressure: 30.04 "Hg

Humidity: 51%

Dew point: 36 °F

Location of OrenburgLocation

Historic Weather in Orenburg — Graph

°F

Orenburg temperature yesterday

Maximum temperature yesterday: 81 °F (at 7:30 PM)
Minimum temperature yesterday: 46 °F (at 7:30 AM)
Average temperature yesterday: 64 °F

Past Weeks' High & Low Weather Summary

 TemperatureHumidityPressure
High91 °F (Jul 16, 6:00 PM)94% (Jul 27, 6:00 AM)30.12 "Hg (Jul 27, 6:00 AM)
Low45 °F (Jul 29, 2:30 AM)17% (Jul 16, 6:30 PM)29.62 "Hg (Jul 21, 3:00 AM)
Average64 °F54%29.84 "Hg
* Reported Jul 16 3:00 AM — Jul 31 3:00 AM, Orenburg, Weather by CustomWeather, © 2014

Note: Actual official high and low records may vary slightly from our data, if they occured in-between our weather recording intervals... More about our weather records

Advertising

Orenburg weather history for previous 24 hours

 ConditionsComfort  
Time TempWeatherWind HumidityBarometerVisibility
3:00 AM
Jul 31
55 °FPassing clouds.No wind51%30.04 "HgN/A
2:30 AM55 °FPassing clouds.No wind51%30.04 "HgN/A
2:00 AM55 °FPassing clouds.No wind44%30.07 "HgN/A
1:30 AM57 °FPassing clouds.No wind48%30.04 "HgN/A
1:00 AM59 °FPassing clouds.No wind51%30.07 "HgN/A
12:30 AM61 °FPassing clouds.No wind39%30.07 "HgN/A
11:30 PM
Jul 30
63 °FPassing clouds.1 mph39%30.07 "HgN/A
11:00 PM66 °FPassing clouds.1 mph35%30.04 "HgN/A
10:30 PM70 °FPassing clouds.1 mph40%30.04 "HgN/A
10:00 PM73 °FSunny.3 mph33%30.04 "HgN/A
9:30 PM77 °FSunny.1 mph28%30.04 "HgN/A
9:00 PM79 °FSunny.3 mph24%30.04 "HgN/A
8:30 PM79 °FSunny.3 mph24%30.04 "HgN/A
8:00 PM79 °FSunny.6 mph24%30.04 "HgN/A
7:30 PM81 °FSunny.3 mph23%30.04 "HgN/A
7:00 PM79 °FSunny.8 mph24%30.04 "HgN/A
6:30 PM79 °FSunny.6 mph23%30.07 "HgN/A
6:00 PM79 °FSunny.6 mph23%30.07 "HgN/A
5:30 PM79 °FSunny.8 mph21%30.07 "HgN/A
5:00 PM79 °FSunny.6 mph23%30.07 "HgN/A
4:30 PM79 °FScattered clouds.3 mph24%30.07 "HgN/A
4:00 PM77 °FScattered clouds.6 mph24%30.09 "HgN/A
3:30 PM77 °FScattered clouds.6 mph26%30.09 "HgN/A
3:00 PM75 °FScattered clouds.3 mph27%30.09 "HgN/A
2:30 PM73 °FScattered clouds.8 mph27%30.09 "HgN/A
2:00 PM72 °FScattered clouds.8 mph31%30.09 "HgN/A
1:30 PM72 °FScattered clouds.8 mph29%30.12 "HgN/A
1:00 PM70 °FPartly sunny.6 mph33%30.12 "HgN/A
12:30 PM68 °FPartly sunny.6 mph38%30.12 "HgN/A
12:00 PM68 °FScattered clouds.8 mph40%30.12 "HgN/A
11:30 AM66 °FScattered clouds.6 mph43%30.12 "HgN/A
11:00 AM66 °FScattered clouds.6 mph43%30.12 "HgN/A
10:30 AM64 °FScattered clouds.6 mph46%30.12 "HgN/A
10:00 AM64 °FScattered clouds.3 mph49%30.12 "HgN/A
9:30 AM61 °FPartly sunny.1 mph55%30.12 "HgN/A
9:00 AM59 °FPartly sunny.6 mph59%30.09 "HgN/A
8:30 AM55 °FPartly sunny.1 mph67%30.09 "HgN/A
8:00 AM48 °FPartly sunny.1 mph82%30.09 "HgN/A
7:30 AM46 °FScattered clouds.1 mph82%30.09 "HgN/A
7:00 AM48 °FPassing clouds.1 mph76%30.09 "HgN/A
6:30 AM48 °FPassing clouds.1 mph82%30.09 "HgN/A
6:00 AM52 °FPassing clouds.3 mph72%30.09 "HgN/A
5:30 AM50 °FPassing clouds.3 mph71%30.09 "HgN/A
5:00 AM50 °FClear.8 mph76%30.09 "HgN/A
4:30 AM50 °FClear.6 mph71%30.09 "HgN/A
4:00 AM50 °FClear.8 mph71%30.09 "HgN/A
Weather by CustomWeather, © 2014

See weather overviewHow to use our weather pages